EZY595R EGHI-EGPF

Flight info

Callsign EZY595R
Flight time 0h 59m
Altitude 32000
Route NORRY Q41 SILVA UM605 DTY UY53 SAPCO UN57 POL UN601 RIBEL DCT ASLIB
Aircraft A320/M-SDE3FGHIRWY/LB1

Departure

Time 2026-05-04 13:57
Airport Southampton Airport (EGHI)

Arrival

Time 2026-05-04 14:57
Airport Glasgow Airport (EGPF)
Time Latitude Longitude Altitude Speed Heading
2026-05-04 13:36 50.94972 -1.36117 39 ft 0 kts 19°
2026-05-04 13:48 50.94970 -1.36118 39 ft 2 kts 19°
2026-05-04 13:48 50.94946 -1.36135 38 ft 4 kts 32°
2026-05-04 13:48 50.94927 -1.36161 35 ft 4 kts 68°
2026-05-04 13:48 50.94925 -1.36187 39 ft 0 kts 109°
2026-05-04 13:52 50.94924 -1.36181 39 ft 2 kts 109°
2026-05-04 13:52 50.94920 -1.36164 37 ft 3 kts 109°
2026-05-04 13:52 50.94904 -1.36097 39 ft 9 kts 110°
2026-05-04 13:53 50.94862 -1.36033 39 ft 11 kts 181°
2026-05-04 13:53 50.94777 -1.36075 38 ft 14 kts 199°
2026-05-04 13:53 50.94697 -1.36120 37 ft 8 kts 199°
2026-05-04 13:54 50.94608 -1.36116 39 ft 5 kts 144°
2026-05-04 13:54 50.94586 -1.36072 39 ft 6 kts 120°
2026-05-04 13:54 50.94528 -1.35954 38 ft 9 kts 192°
2026-05-04 13:55 50.94437 -1.36008 38 ft 18 kts 199°
2026-05-04 13:55 50.94313 -1.36057 34 ft 2 kts 297°
2026-05-04 13:55 50.94338 -1.36067 35 ft 6 kts
2026-05-04 13:56 50.94348 -1.36062 34 ft 0 kts 19°
2026-05-04 13:56 50.95103 -1.35637 40 ft 128 kts 19°
2026-05-04 13:57 50.96031 -1.35123 499 ft 140 kts 18°
2026-05-04 13:57 50.96937 -1.34620 1239 ft 137 kts 19°
2026-05-04 13:58 51.00280 -1.33127 2198 ft 196 kts 15°
2026-05-04 13:58 51.03101 -1.31908 2636 ft 228 kts 15°
2026-05-04 13:58 51.04708 -1.31206 2816 ft 251 kts 15°
2026-05-04 13:59 51.06428 -1.30451 3253 ft 260 kts 15°
2026-05-04 13:59 51.08100 -1.29723 3802 ft 264 kts 15°
2026-05-04 13:59 51.11676 -1.28175 4996 ft 269 kts 15°
2026-05-04 14:00 51.13488 -1.27392 5554 ft 271 kts 15°
2026-05-04 14:00 51.17162 -1.25803 6656 ft 276 kts 15°
2026-05-04 14:00 51.19029 -1.24994 7167 ft 280 kts 15°
2026-05-04 14:01 51.20918 -1.24173 7666 ft 283 kts 15°
2026-05-04 14:01 51.22824 -1.23347 8165 ft 285 kts 15°
2026-05-04 14:01 51.26689 -1.21663 9145 ft 291 kts 15°
2026-05-04 14:02 51.28624 -1.20817 9609 ft 293 kts 15°
2026-05-04 14:02 51.30630 -1.19938 10058 ft 297 kts 15°
2026-05-04 14:02 51.32643 -1.19056 10189 ft 310 kts 15°
2026-05-04 14:02 51.34764 -1.18129 10304 ft 322 kts 14°
2026-05-04 14:03 51.36936 -1.17181 10446 ft 330 kts 14°
2026-05-04 14:03 51.39140 -1.16217 10847 ft 328 kts 14°
2026-05-04 14:03 51.41346 -1.15249 11100 ft 329 kts 14°
2026-05-04 14:03 51.43461 -1.14318 11087 ft 305 kts 14°
2026-05-04 14:04 51.47367 -1.12599 11099 ft 284 kts 14°
2026-05-04 14:04 51.49354 -1.11733 11312 ft 309 kts 14°
2026-05-04 14:04 51.51510 -1.10811 11606 ft 332 kts 14°
2026-05-04 14:05 51.56133 -1.08841 12877 ft 351 kts 14°
2026-05-04 14:05 51.58509 -1.07823 13656 ft 355 kts 14°
2026-05-04 14:05 51.60904 -1.06795 14359 ft 358 kts 14°
2026-05-04 14:06 51.63363 -1.06039 15046 ft 362 kts
2026-05-04 14:06 51.65863 -1.05400 15737 ft 366 kts
2026-05-04 14:06 51.68395 -1.04754 16402 ft 370 kts
2026-05-04 14:06 51.70950 -1.04100 17062 ft 374 kts
2026-05-04 14:07 51.73539 -1.03438 17722 ft 378 kts
2026-05-04 14:07 51.76150 -1.02769 18356 ft 383 kts
2026-05-04 14:07 51.78795 -1.02085 18935 ft 386 kts
2026-05-04 14:07 51.81461 -1.01394 19539 ft 390 kts
2026-05-04 14:08 51.84165 -1.00932 20102 ft 392 kts
2026-05-04 14:08 51.86892 -1.01230 20664 ft 394 kts 349°
2026-05-04 14:08 51.89572 -1.02090 21218 ft 397 kts 347°
2026-05-04 14:08 51.92308 -1.02989 21787 ft 399 kts 347°
2026-05-04 14:09 51.97797 -1.04771 22865 ft 405 kts 347°
2026-05-04 14:09 52.00574 -1.05669 23406 ft 408 kts 347°
2026-05-04 14:10 52.06175 -1.07491 24312 ft 413 kts 347°
2026-05-04 14:10 52.09002 -1.08419 24737 ft 416 kts 347°
2026-05-04 14:10 52.11847 -1.09352 25168 ft 418 kts 347°
2026-05-04 14:10 52.14670 -1.10278 25580 ft 421 kts 347°
2026-05-04 14:11 52.17536 -1.11295 25994 ft 423 kts 343°
2026-05-04 14:11 52.23038 -1.14756 26797 ft 426 kts 336°
2026-05-04 14:11 52.25788 -1.16607 27189 ft 429 kts 336°
2026-05-04 14:12 52.28559 -1.18467 27577 ft 431 kts 336°
2026-05-04 14:12 52.31337 -1.20332 28019 ft 433 kts 336°
2026-05-04 14:12 52.36935 -1.24096 28807 ft 437 kts 336°
2026-05-04 14:13 52.39755 -1.26002 29192 ft 439 kts 336°
2026-05-04 14:13 52.42585 -1.27920 29557 ft 442 kts 336°
2026-05-04 14:13 52.45433 -1.29853 29910 ft 444 kts 336°
2026-05-04 14:13 52.48293 -1.31795 30240 ft 446 kts 336°
2026-05-04 14:14 52.51169 -1.33748 30525 ft 448 kts 336°
2026-05-04 14:14 52.56975 -1.37607 31078 ft 452 kts 339°
2026-05-04 14:14 52.59930 -1.39417 31352 ft 454 kts 340°
2026-05-04 14:15 52.65897 -1.42923 31955 ft 455 kts 341°
2026-05-04 14:15 52.71740 -1.46381 32032 ft 434 kts 340°
2026-05-04 14:16 52.80114 -1.51468 32089 ft 423 kts 342°
2026-05-04 14:17 52.88369 -1.56522 32088 ft 421 kts 342°
2026-05-04 14:18 52.96609 -1.61578 32074 ft 421 kts 342°
2026-05-04 14:19 53.07567 -1.68322 32088 ft 419 kts 343°
2026-05-04 14:19 53.13016 -1.71700 32088 ft 417 kts 343°
2026-05-04 14:20 53.18423 -1.75054 32078 ft 417 kts 343°
2026-05-04 14:20 53.23855 -1.78438 32073 ft 417 kts 343°
2026-05-04 14:21 53.31981 -1.83515 32062 ft 415 kts 343°
2026-05-04 14:21 53.36511 -1.86345 32058 ft 415 kts 343°
2026-05-04 14:22 53.41917 -1.89732 32067 ft 415 kts 343°
2026-05-04 14:22 53.47283 -1.93121 32056 ft 415 kts 343°
2026-05-04 14:23 53.55373 -1.98235 32051 ft 414 kts 343°
2026-05-04 14:24 53.60767 -2.01644 32052 ft 414 kts 343°
2026-05-04 14:24 53.66163 -2.05064 32052 ft 414 kts 343°
2026-05-04 14:25 53.71552 -2.08506 32045 ft 415 kts 343°
2026-05-04 14:25 53.79499 -2.13730 32043 ft 415 kts 341°
2026-05-04 14:26 53.84839 -2.17427 32040 ft 414 kts 341°
2026-05-04 14:26 53.90174 -2.21106 32041 ft 414 kts 341°
2026-05-04 14:27 53.95517 -2.24768 32041 ft 414 kts 341°
2026-05-04 14:27 54.00816 -2.28411 32039 ft 414 kts 340°
2026-05-04 14:28 54.05928 -2.32972 32037 ft 415 kts 334°
2026-05-04 14:28 54.10982 -2.37710 32038 ft 415 kts 334°
2026-05-04 14:29 54.21085 -2.47210 32038 ft 415 kts 334°
2026-05-04 14:30 54.26126 -2.51980 32037 ft 414 kts 333°
2026-05-04 14:31 54.33667 -2.59124 32042 ft 412 kts 333°
2026-05-04 14:32 54.43649 -2.68633 31446 ft 405 kts 333°
2026-05-04 14:32 54.46105 -2.70980 31189 ft 402 kts 333°
2026-05-04 14:32 54.48543 -2.73311 30937 ft 399 kts 332°
2026-05-04 14:32 54.50955 -2.75621 30690 ft 396 kts 332°
2026-05-04 14:33 54.53354 -2.77921 30441 ft 393 kts 332°
2026-05-04 14:33 54.55736 -2.80211 30193 ft 391 kts 332°
2026-05-04 14:33 54.58102 -2.82493 29930 ft 389 kts 332°
2026-05-04 14:33 54.60428 -2.84738 29640 ft 387 kts 332°
2026-05-04 14:34 54.62774 -2.87001 29361 ft 386 kts 332°
2026-05-04 14:34 54.65142 -2.89286 29073 ft 384 kts 332°
2026-05-04 14:34 54.67440 -2.91505 28804 ft 382 kts 332°
2026-05-04 14:34 54.69737 -2.93726 28414 ft 375 kts 332°
2026-05-04 14:35 54.71999 -2.95917 27972 ft 370 kts 332°
2026-05-04 14:35 54.74232 -2.98081 27557 ft 365 kts 331°
2026-05-04 14:35 54.76431 -3.00221 27143 ft 360 kts 331°
2026-05-04 14:35 54.78601 -3.02341 26738 ft 356 kts 331°
2026-05-04 14:36 54.80740 -3.04431 26355 ft 351 kts 331°
2026-05-04 14:36 54.82857 -3.06499 25958 ft 348 kts 331°
2026-05-04 14:36 54.84982 -3.08573 25628 ft 356 kts 331°
2026-05-04 14:36 54.87158 -3.10701 25281 ft 360 kts 331°
2026-05-04 14:37 54.89332 -3.12834 24931 ft 359 kts 330°
2026-05-04 14:37 54.91504 -3.14970 24585 ft 358 kts 330°
2026-05-04 14:37 54.93675 -3.17108 24234 ft 359 kts 330°
2026-05-04 14:37 54.95842 -3.19245 23881 ft 357 kts 330°
2026-05-04 14:38 54.97997 -3.21373 23532 ft 355 kts 330°
2026-05-04 14:38 55.00134 -3.23481 23153 ft 351 kts 330°
2026-05-04 14:38 55.02257 -3.25577 22810 ft 350 kts 330°
2026-05-04 14:38 55.04371 -3.27664 22468 ft 349 kts 330°
2026-05-04 14:39 55.06487 -3.29753 22129 ft 349 kts 329°
2026-05-04 14:39 55.08593 -3.31837 21792 ft 347 kts 329°
2026-05-04 14:39 55.10671 -3.33896 21528 ft 339 kts 329°
2026-05-04 14:40 55.14749 -3.37950 20804 ft 339 kts 329°
2026-05-04 14:40 55.16771 -3.39965 20480 ft 339 kts 329°
2026-05-04 14:40 55.18817 -3.42007 20148 ft 338 kts 329°
2026-05-04 14:40 55.20857 -3.44043 19695 ft 338 kts 329°
2026-05-04 14:41 55.22914 -3.46096 19117 ft 342 kts 328°
2026-05-04 14:41 55.24987 -3.48165 18545 ft 345 kts 328°
2026-05-04 14:41 55.29173 -3.52361 17444 ft 345 kts 328°
2026-05-04 14:42 55.33321 -3.56523 16502 ft 340 kts 328°
2026-05-04 14:42 55.35363 -3.58582 16031 ft 338 kts 328°
2026-05-04 14:42 55.37396 -3.60634 15599 ft 336 kts 328°
2026-05-04 14:43 55.39418 -3.62675 15135 ft 334 kts 328°
2026-05-04 14:43 55.41426 -3.64701 14749 ft 331 kts 328°
2026-05-04 14:43 55.43387 -3.66680 14619 ft 319 kts 328°
2026-05-04 14:43 55.45280 -3.68593 14494 ft 309 kts 328°
2026-05-04 14:44 55.47117 -3.70448 14166 ft 300 kts 327°
2026-05-04 14:44 55.48916 -3.72267 13568 ft 296 kts 327°
2026-05-04 14:44 55.50688 -3.74067 12891 ft 293 kts 327°
2026-05-04 14:44 55.52421 -3.75832 12219 ft 290 kts 327°
2026-05-04 14:45 55.54163 -3.77608 11567 ft 288 kts 327°
2026-05-04 14:45 55.55887 -3.79367 10906 ft 285 kts 327°
2026-05-04 14:45 55.57601 -3.81116 10276 ft 283 kts 327°
2026-05-04 14:45 55.59303 -3.82853 9622 ft 282 kts 327°
2026-05-04 14:46 55.60996 -3.84581 9008 ft 279 kts 327°
2026-05-04 14:46 55.62668 -3.86292 8390 ft 276 kts 327°
2026-05-04 14:46 55.64322 -3.87988 7790 ft 273 kts 327°
2026-05-04 14:46 55.65955 -3.89663 7269 ft 267 kts 327°
2026-05-04 14:47 55.67503 -3.91243 7148 ft 249 kts 326°
2026-05-04 14:47 55.68995 -3.92775 7039 ft 247 kts 327°
2026-05-04 14:47 55.70502 -3.94283 7048 ft 258 kts 332°
2026-05-04 14:47 55.72225 -3.95420 6998 ft 269 kts 339°
2026-05-04 14:48 55.74008 -3.96420 6729 ft 268 kts 339°
2026-05-04 14:48 55.75785 -3.97404 6463 ft 267 kts 339°
2026-05-04 14:48 55.77551 -3.98391 6178 ft 265 kts 339°
2026-05-04 14:48 55.79300 -3.99367 5879 ft 262 kts 339°
2026-05-04 14:49 55.81034 -4.00343 5593 ft 260 kts 340°
2026-05-04 14:49 55.82750 -4.01306 5315 ft 257 kts 340°
2026-05-04 14:49 55.84449 -4.02282 5032 ft 255 kts 339°
2026-05-04 14:49 55.86133 -4.03275 4751 ft 254 kts 340°
2026-05-04 14:50 55.87790 -4.04260 4457 ft 248 kts 340°
2026-05-04 14:50 55.89406 -4.05216 4167 ft 242 kts 339°
2026-05-04 14:50 55.90989 -4.06124 3877 ft 236 kts 340°
2026-05-04 14:50 55.92527 -4.07005 3681 ft 228 kts 338°
2026-05-04 14:51 55.93866 -4.08330 3524 ft 216 kts 322°
2026-05-04 14:51 55.95006 -4.09921 3416 ft 205 kts 319°
2026-05-04 14:51 55.95958 -4.11714 3308 ft 196 kts 299°
2026-05-04 14:51 55.96430 -4.13969 3203 ft 188 kts 287°
2026-05-04 14:52 55.96806 -4.16136 3100 ft 182 kts 287°
2026-05-04 14:52 55.97177 -4.18292 3010 ft 177 kts 287°
2026-05-04 14:52 55.97530 -4.20345 2934 ft 174 kts 285°
2026-05-04 14:52 55.97619 -4.22514 2874 ft 174 kts 262°
2026-05-04 14:53 55.97177 -4.24513 2752 ft 179 kts 237°
2026-05-04 14:53 55.96341 -4.26165 2535 ft 176 kts 229°
2026-05-04 14:53 55.95519 -4.27703 2290 ft 171 kts 230°
2026-05-04 14:53 55.94713 -4.29217 2060 ft 165 kts 230°
2026-05-04 14:54 55.93948 -4.30652 1837 ft 154 kts 231°
2026-05-04 14:54 55.93239 -4.31983 1645 ft 141 kts 232°
2026-05-04 14:54 55.92584 -4.33213 1454 ft 135 kts 233°
2026-05-04 14:54 55.91951 -4.34403 1261 ft 130 kts 233°
2026-05-04 14:55 55.91333 -4.35562 1098 ft 129 kts 231°
2026-05-04 14:55 55.90705 -4.36710 920 ft 129 kts 231°
2026-05-04 14:55 55.90094 -4.37864 735 ft 127 kts 231°
2026-05-04 14:55 55.89479 -4.39017 599 ft 128 kts 233°
2026-05-04 14:56 55.88871 -4.40190 385 ft 128 kts 227°
2026-05-04 14:56 55.88250 -4.41347 193 ft 129 kts 230°
2026-05-04 14:56 55.87635 -4.42506 32 ft 126 kts 228°
2026-05-04 14:56 55.87139 -4.43435 29 ft 79 kts 226°
2026-05-04 14:57 55.86871 -4.43935 29 ft 40 kts 226°
2026-05-04 14:57 55.86702 -4.44252 29 ft 19 kts 222°
2026-05-04 14:57 55.86619 -4.44184 29 ft 10 kts 96°
2026-05-04 14:57 55.86619 -4.44082 29 ft 8 kts 91°
2026-05-04 14:58 55.86586 -4.44040 29 ft 6 kts 178°
2026-05-04 14:58 55.86548 -4.44030 29 ft 5 kts 157°
2026-05-04 14:58 55.86515 -4.43999 29 ft 6 kts 152°
2026-05-04 14:58 55.86475 -4.43962 29 ft 7 kts 152°
2026-05-04 14:59 55.86426 -4.43916 29 ft 8 kts 152°
2026-05-04 14:59 55.86394 -4.43850 29 ft 7 kts 83°
2026-05-04 14:59 55.86422 -4.43749 29 ft 2 kts 62°
2026-05-04 15:00 55.86423 -4.43745 29 ft 0 kts 62°